Observations for Trim Market St
| Time | AQI | Temp °C | Hum % | Pres Pa | CO μg/m³ | H₂S μg/m³ | NO μg/m³ | NO₂ μg/m³ | O₃ μg/m³ | SO₂ μg/m³ | PM1 μg/m³ | PM2.5 μg/m³ | PM10 μg/m³ |
|---|---|---|---|---|---|---|---|---|---|---|---|---|---|
| Sunday 23 August 2026 | |||||||||||||
| 04:08 | 2 | 13.6 | 69 | 56,784 | 0.36 | 0 | 2.31 | 8.67 | 50.5 | 0 | 1.43 | 3.6 | 5.63 |
| 04:07 | 2 | 13.6 | 69 | 56,811 | 0.38 | 0 | 2.17 | 8.66 | 50.61 | 0 | 0.71 | 2.63 | 5.62 |
| 04:06 | 2 | 13.6 | 69 | 56,833 | 0.35 | 0 | 2.28 | 8.8 | 50.51 | 0 | 2.14 | 4.1 | 6.26 |
| 04:05 | 2 | 13.6 | 69 | 56,848 | 0.37 | 0 | 2.23 | 9.26 | 50.43 | 0 | 2.85 | 3.61 | 8.16 |
| 03:55 | 2 | 13.5 | 68 | 56,909 | 0.35 | 0 | 2.11 | 7.59 | 53.66 | 0 | 2.14 | 3.13 | 4.98 |
| 03:53 | 2 | 13.6 | 68 | 56,932 | 0.34 | 0 | 2.08 | 8.1 | 52.41 | 0 | 1.43 | 3.13 | 4.98 |
| 03:51 | 2 | 13.6 | 68 | 56,963 | 0.35 | 0 | 2.05 | 8.27 | 51.8 | 0 | 1.43 | 4.12 | 6.25 |
| 03:50 | 2 | 13.6 | 68 | 56,979 | 0.34 | 0 | 2.27 | 8.56 | 51.28 | 0 | 1.43 | 2.65 | 4.34 |
| 03:49 | 2 | 13.6 | 68 | 56,989 | 0.34 | 0 | 2.51 | 8.1 | 52.09 | 0 | 0.71 | 2.65 | 4.34 |
| 03:48 | 2 | 13.6 | 68 | 57,000 | 0.36 | 0 | 3.07 | 8.19 | 51.89 | 0 | 0.71 | 3.14 | 5.62 |
| 03:47 | 2 | 13.6 | 68 | 57,004 | 0.38 | 0 | 3.06 | 11.56 | 48.67 | 0 | 0.71 | 2.16 | 3.7 |
| 03:46 | 2 | 13.6 | 68 | 57,010 | 0.41 | 0 | 2.95 | 23.49 | 30.46 | 0 | 3.56 | 5.1 | 8.81 |
| 03:45 | 2 | 13.6 | 68 | 57,012 | 0.38 | 0 | 2.98 | 20.44 | 35.47 | 0 | 2.85 | 4.12 | 6.25 |
| 03:42 | 2 | 13.6 | 68 | 57,000 | 0.34 | 0 | 2.09 | 7.63 | 54.47 | 0 | 0.71 | 4.12 | 6.25 |
| 03:40 | 2 | 13.6 | 68 | 56,985 | 0.35 | 0 | 2.08 | 7.18 | 53.9 | 0 | 1.43 | 3.14 | 4.98 |
| 03:37 | 2 | 13.6 | 68 | 56,949 | 0.34 | 0 | 2.22 | 7.39 | 53.17 | 0 | 2.14 | 4.11 | 6.26 |
| 03:33 | 2 | 13.7 | 68 | 56,917 | 0.33 | 0 | 2.3 | 7.32 | 53.72 | 0 | 1.43 | 3.13 | 5.62 |
| 03:32 | 2 | 13.7 | 68 | 56,908 | 0.34 | 0 | 2.1 | 7.48 | 53.01 | 0 | 1.43 | 2.65 | 4.35 |
| 03:25 | 2 | 13.7 | 68 | 56,925 | 0.33 | 0 | 2.33 | 7.49 | 54.28 | 0 | 2.14 | 3.63 | 6.25 |
| 03:24 | 2 | 13.7 | 68 | 56,930 | 0.34 | 0 | 2.33 | 8.3 | 51.86 | 0 | 2.14 | 4.12 | 6.25 |